User: anonymous   Login
Location: Archemont
(49.1579°N, 1.7598°E)
Time: 23:02:06
(UTC+00:00)
Language:

COSMOS 2556 - Orbit

View from above orbital plane
View from above orbital plane
View from above satellite
View from above satellite

Ground track
Ground track

The orbit data is extracted from the following two-line orbital elements,

1 52713U 22054A   24052.83342511  .00005584  00000-0  24903-3 0  9994
2 52713  97.5610 340.4396 0014078 254.6519 105.3161 15.21733317 97768
Epoch (UTC): 21 February 2024 20:00:07
Eccentricity: 0.0014078
inclination: 97.5610°
perigee height: 491 km
apogee height: 510 km
right ascension of ascending node: 340.4396°
argument of perigee: 254.6519°
revolutions per day: 15.21733317
mean anomaly at epoch: 105.3161°
orbit number at epoch: 9776

The dashed part of the orbit path shows where the satellite is in the earth's shadow,  

DLR